IPM 2 & BREEZE-M R/B (47242 NORAD) Tracking and Keplerian Element Data
This shows tracking and keplerian element data for the satellite.
Feedback or suggestion? Click here.
Element | Value |
Catalog | 47242 |
Name | IPM 2 & BREEZE-M R/B |
Epoch Orbit | 82 |
Epoch Day | 59.96021451 |
Epoch Year | 2021 |
RAAN | 123.7828 |
Inclination | 0.1797 |
Eccentricity | 0.008883 |
Argument of Perigee | 198.1744 |
Mean Anonmoly | 259.3372 |
Mean Motion | 0.9529737 |
Decay Rate | -6.5E-07 |
L1 | 1 47242U 20097A 21059.96021451 -.00000065 00000-0 00000-0 0 9994 |
L2 | 2 47242 0.1797 123.7828 0088830 198.1744 259.3372 0.95297370 820 |
Live tracking and technical data element details for IPM 2 & BREEZE-M R/B (NORAD 47242). IPM 2 & BREEZE-M R/B can be tracked NOW for your location showing map with azimuth and elevation plus other details from your city location.
Track the satellite on the map from your city or location and see movement details for azimuth, elevation, latitude, longitude, range, height, and movement on the map or in text.
IsCatalogInMostPopularTable: catalog: 47242, numindb: 22
Update: records affected: 1
GetName: 47242 IPM 2 & BREEZE-M R/B
Hit Count: updated at: Mon, 01 Mar 2021 22:51:41 GMT